Wind from 230 at 1 knots gusting 10

Air temperature 5.0° C
Dewpoint 3.3° C

Last reported at 2014-Apr-19 18:46 UTC.
Time now 2014-Apr-19 19:43 UTC

Location: N 67°16' E 015°25'.
View on Google Maps.

See reports from other nearby stations

Tides Stations Pressure Air Temp Water Temp Dewpoint Dewpoint depression Visibility Wind Speed Wind Dir Waves Ship positions

  
sailing weather and tide predictions

DW1549 Fauske NO weather

date/time (UTC)wind fromknots sea level pressurealtimeterstation pressurevisibilityair tempwater tempwave heightnotes
2014-Apr-19 18:46 230 1 gusting 10 5.0
2014-Apr-19 18:36 220 1 gusting 5 5.0
2014-Apr-19 18:26 240 1 gusting 10 5.0
2014-Apr-19 18:16 252 1 gusting 10 5.6
2014-Apr-19 18:06 237 2 gusting 7 5.6
2014-Apr-19 17:56 263 4 gusting 10 5.6
2014-Apr-19 17:46 237 0 gusting 10 5.6
2014-Apr-19 17:36 249 4 gusting 10 5.0
2014-Apr-19 17:26 227 0 gusting 8 5.0
2014-Apr-19 17:16 252 0 gusting 6 5.0
2014-Apr-19 17:06 255 1 gusting 5 4.4
2014-Apr-19 16:56 242 2 gusting 6 4.4
2014-Apr-19 16:46 238 3 gusting 10 4.4
2014-Apr-19 16:36 237 3 gusting 15 4.4
2014-Apr-19 16:26 222 4 gusting 15 5.0
2014-Apr-19 16:16 241 2 gusting 6 5.0
2014-Apr-19 16:06 250 2 gusting 6 4.4
2014-Apr-19 15:56 197 0 gusting 5 4.4
2014-Apr-19 15:46 237 1 gusting 8 4.4
2014-Apr-19 15:36 271 1 gusting 8 3.9
2014-Apr-19 15:26 219 0 gusting 10 3.9
2014-Apr-19 15:16 204 4 gusting 13 4.4
2014-Apr-19 15:06 263 6 gusting 17 5.0
2014-Apr-19 14:56 257 4 gusting 12 5.6
2014-Apr-19 14:46 225 2 gusting 6 5.6
2014-Apr-19 14:36 248 6.1
2014-Apr-19 14:26 227 2 gusting 10 6.1
2014-Apr-19 14:16 220 2 gusting 8 6.1
2014-Apr-19 14:06 206 4 gusting 10 6.1
2014-Apr-19 13:56 263 4 gusting 10 6.7
2014-Apr-19 13:46 256 4 gusting 10 6.7
2014-Apr-19 13:36 238 4 gusting 13 6.1
2014-Apr-19 13:26 204 5 gusting 11 6.1
2014-Apr-19 13:16 222 2 gusting 11 6.1
2014-Apr-19 13:06 191 3 gusting 7 6.1
2014-Apr-19 12:56 228 4 gusting 8 6.1
2014-Apr-19 12:46 209 6.1
2014-Apr-19 12:36 232 6.1
2014-Apr-19 12:26 233 6.1
2014-Apr-19 12:16 242 1 gusting 7 6.1
2014-Apr-19 12:06 254 1 gusting 8 6.1
2014-Apr-19 11:56 257 0 gusting 6 6.1
2014-Apr-19 11:46 244 6.1
2014-Apr-19 11:36 230 0 gusting 6 6.1
2014-Apr-19 11:26 249 3 gusting 11 6.1
2014-Apr-19 11:16 239 5 gusting 18 6.1
2014-Apr-19 11:06 251 6 gusting 15 6.1
2014-Apr-19 10:56 249 7 gusting 17 6.1
2014-Apr-19 10:46 224 7 gusting 19 6.1
2014-Apr-19 10:36 290 10 gusting 18 6.1
2014-Apr-19 10:26 243 9 gusting 17 6.7
2014-Apr-19 10:16 259 7 gusting 18 6.7
2014-Apr-19 10:06 231 5 gusting 14 6.7
2014-Apr-19 09:56 212 6.7
2014-Apr-19 09:46 163 6.7
2014-Apr-19 09:36 163 6.7
2014-Apr-19 09:26 163 6.7
2014-Apr-19 09:16 163 6.7
2014-Apr-19 09:06 163 6.1
2014-Apr-19 08:56 163 6.1
2014-Apr-19 08:46 191 6.1
2014-Apr-19 08:36 191 6.1
2014-Apr-19 08:26 191 6.1
2014-Apr-19 08:16 167 6.1
2014-Apr-19 08:06 174 1 gusting 5 6.1
2014-Apr-19 07:56 150 0 gusting 7 5.6
2014-Apr-19 07:46 155 5.6
2014-Apr-19 07:36 155 1 gusting 7 5.6
2014-Apr-19 07:26 184 1 gusting 6 5.6
2014-Apr-19 07:16 188 3 gusting 6 5.6
2014-Apr-19 07:06 174 1 gusting 7 5.6
2014-Apr-19 06:56 178 4 gusting 8 5.6
2014-Apr-19 06:46 155 2 gusting 11 5.6
2014-Apr-19 06:36 171 3 gusting 7 5.6
2014-Apr-19 06:26 132 5.6
2014-Apr-19 06:16 130 5.0
2014-Apr-19 06:06 150 5.0
2014-Apr-19 05:56 150 5.0
2014-Apr-19 05:46 150 5.0
2014-Apr-19 05:36 150 2 gusting 4 5.0
2014-Apr-19 05:26 162 5.6
2014-Apr-19 05:16 160 3 gusting 12 5.6
2014-Apr-19 05:06 153 6 gusting 14 5.6
2014-Apr-19 04:56 149 8 gusting 15 5.6
2014-Apr-19 04:46 150 9 gusting 15 5.0
2014-Apr-19 04:36 158 7 gusting 13 5.0
2014-Apr-19 04:26 159 11 gusting 17 5.0
2014-Apr-19 04:16 158 12 gusting 18 5.0
2014-Apr-19 04:06 158 12 gusting 18 5.0
2014-Apr-19 03:56 138 12 gusting 18 5.0
2014-Apr-19 03:46 160 10 gusting 15 5.0
2014-Apr-19 03:36 160 8 gusting 17 5.0
2014-Apr-19 03:26 179 7 gusting 13 5.0
2014-Apr-19 03:16 157 5 gusting 15 5.0
2014-Apr-19 03:06 184 9 gusting 17 5.0
2014-Apr-19 02:56 177 11 gusting 17 5.0
2014-Apr-19 02:46 190 10 gusting 17 5.6
2014-Apr-19 02:36 185 11 gusting 17 5.6
2014-Apr-19 02:26 185 8 gusting 17 5.6
2014-Apr-19 02:16 180 8 gusting 13 5.6
2014-Apr-19 02:06 178 7 gusting 14 6.1
2014-Apr-19 01:56 173 7 gusting 14 6.1
2014-Apr-19 01:46 190 9 gusting 14 6.1
2014-Apr-19 01:36 188 11 gusting 18 6.1
2014-Apr-19 01:26 190 11 gusting 18 6.1
2014-Apr-19 01:16 178 12 gusting 18 5.6
2014-Apr-19 01:06 175 12 gusting 18 5.6
2014-Apr-19 00:56 179 8 gusting 19 5.0
2014-Apr-19 00:46 165 11 gusting 19 5.0
2014-Apr-19 00:36 184 10 gusting 17 5.6
2014-Apr-19 00:26 176 10 gusting 18 5.6
2014-Apr-19 00:16 179 9 gusting 17 5.6
2014-Apr-19 00:06 174 10 gusting 15 5.6
2014-Apr-18 23:56 174 6 gusting 14 5.0
2014-Apr-18 23:46 188 6 gusting 18 5.0
2014-Apr-18 23:36 178 10 gusting 17 5.0
2014-Apr-18 23:26 160 10 gusting 14 5.0
2014-Apr-18 23:16 174 10 gusting 20 5.6
2014-Apr-18 23:06 181 7 gusting 17 5.6
2014-Apr-18 22:56 175 11 gusting 20 5.6
2014-Apr-18 22:46 181 13 gusting 19 5.6
2014-Apr-18 22:36 181 11 gusting 18 5.6
2014-Apr-18 22:26 184 12 gusting 21 5.6
2014-Apr-18 22:16 181 11 gusting 19 5.6
2014-Apr-18 22:06 181 11 gusting 19 5.0
2014-Apr-18 21:56 178 8 gusting 18 5.0
2014-Apr-18 21:46 180 6 gusting 20 5.0
2014-Apr-18 21:36 197 11 gusting 20 5.0
2014-Apr-18 21:26 170 13 gusting 20 5.6
2014-Apr-18 21:16 181 11 gusting 18 5.6
2014-Apr-18 21:06 181 8 gusting 19 5.6
2014-Apr-18 20:56 182 10 gusting 19 5.0
2014-Apr-18 20:46 182 10 gusting 17 5.0
2014-Apr-18 20:36 159 8 gusting 17 5.0
2014-Apr-18 20:26 155 6 gusting 14 5.0
2014-Apr-18 20:16 165 7 gusting 17 5.0
2014-Apr-18 20:06 158 10 gusting 14 5.0
2014-Apr-18 19:56 136 8 gusting 19 5.0
2014-Apr-18 19:46 158 12 gusting 19 5.0
2014-Apr-18 19:36 163 12 gusting 18 5.0
2014-Apr-18 19:26 157 14 gusting 20 5.0
2014-Apr-18 19:16 190 13 gusting 21 5.0
2014-Apr-18 19:06 153 15 gusting 22 5.0
2014-Apr-18 18:56 155 14 gusting 19 5.0
2014-Apr-18 18:46 163 12 gusting 19 5.0
2014-Apr-18 18:36 152 12 gusting 19 5.0
2014-Apr-18 18:26 160 12 gusting 21 5.0
2014-Apr-18 18:16 169 7 gusting 18 5.0
2014-Apr-18 18:06 176 7 gusting 17 5.0
2014-Apr-18 17:56 185 6 gusting 14 5.0
2014-Apr-18 17:46 169 6 gusting 14 5.0
2014-Apr-18 17:36 180 8 gusting 13 5.0
2014-Apr-18 17:26 166 6 gusting 15 5.0
2014-Apr-18 17:16 163 8 gusting 14 5.0
2014-Apr-18 17:06 163 6 gusting 13 5.0
2014-Apr-18 16:56 173 5 gusting 13 5.0
2014-Apr-18 16:46 183 6 gusting 12 5.0
2014-Apr-18 16:36 180 5 gusting 11 5.0
2014-Apr-18 16:26 174 5 gusting 10 5.0
2014-Apr-18 16:16 170 5 gusting 11 5.0
2014-Apr-18 16:06 186 7 gusting 13 5.0
2014-Apr-18 15:56 192 4 gusting 10 5.0
2014-Apr-18 15:46 186 4 gusting 10 5.0
2014-Apr-18 15:36 191 2 gusting 8 5.0
2014-Apr-18 15:26 197 6 gusting 11 5.6
2014-Apr-18 15:16 189 4 gusting 10 5.6
2014-Apr-18 15:06 187 1 gusting 8 5.6
2014-Apr-18 14:56 188 0 gusting 7 5.6
2014-Apr-18 14:46 203 1 gusting 8 5.0
2014-Apr-18 14:36 214 1 gusting 8 5.0
2014-Apr-18 14:26 200 4 gusting 10 5.0
2014-Apr-18 14:16 194 5 gusting 10 5.0
2014-Apr-18 14:06 205 4 gusting 8 5.0
2014-Apr-18 13:56 197 2 gusting 10 5.0
2014-Apr-18 13:46 184 7 gusting 11 5.0
2014-Apr-18 13:36 181 5 gusting 10 5.0
2014-Apr-18 13:26 188 4 gusting 11 5.0
2014-Apr-18 13:16 187 5 gusting 11 5.0
2014-Apr-18 13:06 195 5 gusting 12 5.0
2014-Apr-18 12:56 192 2 gusting 8 5.0
2014-Apr-18 12:46 190 2 gusting 8 5.0
2014-Apr-18 12:36 191 3 gusting 10 5.0
2014-Apr-18 12:26 202 0 gusting 4 5.0
2014-Apr-18 12:16 202 1 gusting 5 4.4
2014-Apr-18 12:06 230 2 gusting 5 4.4
2014-Apr-18 11:56 232 2 gusting 7 4.4
2014-Apr-18 11:46 208 0 gusting 5 4.4
2014-Apr-18 11:36 227 1 gusting 6 4.4
2014-Apr-18 11:26 218 1 gusting 6 4.4
2014-Apr-18 11:16 198 1 gusting 5 4.4
2014-Apr-18 11:06 201 1 gusting 10 4.4
2014-Apr-18 10:56 238 3 gusting 6 4.4
2014-Apr-18 10:46 239 3.9
2014-Apr-18 10:36 227 1 gusting 10 3.9
2014-Apr-18 10:26 265 5 gusting 11 4.4
2014-Apr-18 10:16 242 3 gusting 10 4.4
2014-Apr-18 10:06 192 2 gusting 7 4.4
2014-Apr-18 09:56 218 1 gusting 7 5.0
2014-Apr-18 09:46 206 2 gusting 11 5.0
2014-Apr-18 09:36 195 1 gusting 7 5.0
2014-Apr-18 09:26 215 2 gusting 8 4.4
2014-Apr-18 09:16 235 2 gusting 7 5.0
2014-Apr-18 09:06 215 2 gusting 7 4.4
2014-Apr-18 08:56 251 4 gusting 10 3.9
2014-Apr-18 08:46 231 4 gusting 10 3.3
2014-Apr-18 08:36 219 5 gusting 10 3.3
2014-Apr-18 08:26 259 3 gusting 11 3.3
2014-Apr-18 08:16 234 1 gusting 10 3.3
2014-Apr-18 08:06 252 4 gusting 11 3.3
2014-Apr-18 07:56 222 3 gusting 10 3.9
2014-Apr-18 07:46 250 4 gusting 10 3.3
2014-Apr-18 07:36 233 1 gusting 5 3.3
2014-Apr-18 07:26 237 0 gusting 4 3.3
2014-Apr-18 07:16 233 1 gusting 6 3.3
2014-Apr-18 07:06 229 0 gusting 4 3.3
2014-Apr-18 06:56 246 0 gusting 7 2.8
2014-Apr-18 06:46 233 2 gusting 5 2.8
2014-Apr-18 06:36 238 0 gusting 2 2.8
2014-Apr-18 06:26 238 0 gusting 4 2.8
2014-Apr-18 06:16 219 1 gusting 7 2.8
2014-Apr-18 06:06 284 2.2
2014-Apr-18 05:56 284 1.7
2014-Apr-18 05:46 284 1.1
2014-Apr-18 05:36 284 1.1
2014-Apr-18 05:26 284 1.1
2014-Apr-18 05:16 284 0.6
2014-Apr-18 05:06 284 0.6
2014-Apr-18 04:56 284 0.6
2014-Apr-18 04:46 284 0.6
2014-Apr-18 04:36 284 0.6
2014-Apr-18 04:26 284 0.6
2014-Apr-18 04:16 284 -0.0
2014-Apr-18 04:06 284 -0.0
2014-Apr-18 03:56 284 -0.0
2014-Apr-18 03:46 284 -0.0
2014-Apr-18 03:36 284 -0.0
2014-Apr-18 03:26 284 -0.0
2014-Apr-18 03:16 284 -0.0
2014-Apr-18 03:06 284 -0.0
2014-Apr-18 02:56 284 -0.0
2014-Apr-18 02:46 284 -0.0
2014-Apr-18 02:36 284 -0.0
2014-Apr-18 02:26 284 -0.0
2014-Apr-18 02:16 284 -0.0
2014-Apr-18 02:06 284 -0.0
2014-Apr-18 01:56 284 -0.0
2014-Apr-18 01:46 284 -0.0
2014-Apr-18 01:36 284 -0.0
2014-Apr-18 01:26 284 -0.0
2014-Apr-18 01:16 284 -0.0
2014-Apr-18 01:06 284 -0.0
2014-Apr-18 00:56 284 1 gusting 4 -0.0
2014-Apr-18 00:46 284 -0.0
2014-Apr-18 00:36 284 0.6
2014-Apr-18 00:26 284 0.6
2014-Apr-18 00:16 284 0.6
2014-Apr-18 00:06 284 0.6
2014-Apr-17 23:56 284 -0.0
2014-Apr-17 23:46 284 -0.0
2014-Apr-17 23:36 284 -0.0
2014-Apr-17 23:26 284 -0.0
2014-Apr-17 23:16 284 -0.0
2014-Apr-17 23:06 284 -0.0
2014-Apr-17 22:56 284 -0.0
2014-Apr-17 22:46 284 -0.0
2014-Apr-17 22:36 284 -0.0
2014-Apr-17 22:26 284 0.6
2014-Apr-17 22:16 284 0.6
2014-Apr-17 22:06 284 0.6
2014-Apr-17 21:56 284 0.6
2014-Apr-17 21:46 284 1.1
2014-Apr-17 21:36 284 1.1
2014-Apr-17 21:26 284 1.1
2014-Apr-17 21:16 284 1.7
2014-Apr-17 21:06 284 1.7
2014-Apr-17 20:56 284 1.7
2014-Apr-17 20:46 284 1.7
2014-Apr-17 20:36 284 1.7
2014-Apr-17 20:26 283 1.7
2014-Apr-17 20:16 273 1.7
2014-Apr-17 20:06 244 1.7
2014-Apr-17 19:56 244 1.7
2014-Apr-17 19:46 244 1.7
2014-Apr-17 19:36 244 1.7
2014-Apr-17 19:26 244 1.7
2014-Apr-17 19:16 244 1.7
2014-Apr-17 19:06 244 1.7